Regional Weather Roundup
Issued by NWS Spokane, WA

Home | Current Version | Previous Version | Text Only | Print | Product List | Glossary On
Versions: 1 2 3 4 5 6 7 8 9 10 11 12 13 14 15 16 17 18 19 20 21 22 23 24 25 26 27 28 29 30 31 32 33 34 35 36 37 38 39 40 41 42 43 44 45 46 47 48 49 50
000
NZUS01 KOTX 290405
RWROTX

Eastern Washington/Northern Idaho Roundup
National Weather Service, Spokane WA
900 PM PDT WED SEP 28 2016

Note: "fair" indicated few or no clouds below 12,000 feet with no
significant weather and/or obstructions to visibility.

...Northeast Washington and Northern Idaho Panhandle...

CITY           SKY/WX    TMP DP  RH WIND       PRES   REMARKS
Spokane Intl   PTCLDY    64  39  39 W5        29.96S
Spokane Downto CLEAR     63  45  51 CALM      29.94S
Coeur d Alene  CLEAR     58  47  66 NE8       29.96
Deer Park      CLEAR     57  41  55 NW6       29.96R
Sandpoint      CLEAR     54  50  87 CALM      29.97S
Bonners Ferry  FAIR      57  43  58 CALM      30.01S

...Southeast Washington and southern Idaho Panhandle...

CITY           SKY/WX    TMP DP  RH WIND       PRES   REMARKS
Walla Walla    CLEAR     61  44  53 E7        29.93F
Pullman/Moscow CLEAR     62  42  47 NW3       29.98S
Lewiston       CLEAR     73  42  32 W7        29.91R
Lowell           N/A     61  57  87 CALM      29.93R
Grangeville    FAIR      59  45  58 SE3       29.99S

...Columbia Basin...

CITY           SKY/WX    TMP DP  RH WIND       PRES   REMARKS
Ephrata        CLEAR     68  36  30 NW10      29.93S
Moses Lake     CLEAR     63  34  33 N7        29.93S
Pasco          CLEAR     59  50  72 CALM      29.91R
Hermiston      CLEAR     61  45  55 S7        29.90S
Pendleton      CLEAR     60  40  47 E9        29.94S

...East Slopes Cascades...

CITY           SKY/WX    TMP DP  RH WIND       PRES   REMARKS
The Dalles     CLEAR     70  52  52 NW15      29.91R
Yakima         CLEAR     58  44  60 W7        29.94R
Ellensburg     CLEAR     62  45  53 NW6       29.96S
Stampede Pass  CLOUDY    47  45  93 SW7       30.07S
Wenatchee      CLEAR     65  40  39 NW5       29.94S
Omak           CLEAR     63  33  32 NW12      29.98S
Sunnyside      CLEAR     57  46  68 CALM      29.92R

...Southern British Columbia...

CITY           SKY/WX    TMP DP  RH WIND       PRES   REMARKS

...Western Montana...

CITY           SKY/WX    TMP DP  RH WIND       PRES   REMARKS
Kalispell      CLEAR     58  46  64 NW3       30.01S
Libby            N/A     57  50  77 CALM      30.00S
Missoula       CLEAR     61  44  53 CALM      30.02S

...Neighboring Cities...

CITY           SKY/WX    TMP DP  RH WIND       PRES   REMARKS
Seattle        PTCLDY    60  49  66 NE6       30.05S
Portland       CLEAR     65  46  50 NW9       29.98S
Boise          CLEAR     75  31  19 SE12      29.93R
Great Falls    CLEAR     48  45  89 CALM      30.16S



USA.gov is the U.S. government's official web portal to all federal, state and local government web resources and services.